Regional Weather Roundup
Issued by NWS Mt. Holly, NJ

Home | Current Version | Previous Version | Text Only | Print | Product List | Glossary On
Versions: 1 2 3 4 5 6 7 8 9 10 11 12 13 14 15 16 17 18 19 20 21 22 23 24 25 26 27 28 29 30 31 32 33 34 35 36 37 38 39 40 41 42 43 44 45 46 47 48 49
000
ASUS41 KPHI 250812
RWRPHI

REGIONAL WEATHER ROUNDUP
NATIONAL WEATHER SERVICE MOUNT HOLLY NJ
400 AM EDT TUE APR 25 2017

NOTE:  "FAIR" INDICATES FEW OR NO CLOUDS BELOW 12,000 FEET WITH NO
SIGNIFICANT WEATHER AND/OR OBSTRUCTIONS TO VISIBILITY.

 * = STATION DOES NOT REPORT PRECIPITATION (E.G. RAIN, SNOW, ETC.)
        OR FOG.

NJZ015>026-250900-
SOUTHERN NEW JERSEY

CITY           SKY/WX    TMP DP  RH WIND       PRES   REMARKS
POMONA         CLOUDY    53  51  93 E16G25    29.96S FOG
WILDWOOD*      LGT RAIN  53  52  96 NE17G25   29.93F FOG
MILLVILLE      CLOUDY    54  54 100 E10       29.96S
WRIGHTSTOWN    LGT RAIN  52  50  93 NE15      29.98F FOG
MOUNT HOLLY    CLOUDY    52  50  93 NE8       30.00F
TRENTON        CLOUDY    51  49  92 E14G21    30.02F

$$
NJZ001>014-250900-
NORTHERN NEW JERSEY

CITY           SKY/WX    TMP DP  RH WIND       PRES   REMARKS
SUSSEX         LGT RAIN  53  39  59 NE12      30.09S
ANDOVER*         N/A     53  40  61 NE5       30.06F
MORRISTOWN     DRIZZLE   50  46  87 NE7       30.08S
NEWARK         LGT RAIN  51  48  89 NE13      30.07F
TETERBORO      LGT RAIN  52  48  86 NE7       30.08S
CALDWELL       LGT RAIN  52  46  80 E12       30.08F
SOMERVILLE     CLOUDY    52  46  80 NE9       30.04F
ALLAIRE*       LGT RAIN  50  49  96 NE16      30.04F FOG
TOMS RIVER*    LGT RAIN  50  49  96 NE13      30.02F FOG

$$
PAZ043-044-047-054-055-060>062-066>071-250900-
EASTERN PENNSYLVANIA

CITY           SKY/WX    TMP DP  RH WIND       PRES   REMARKS
PHILADELPHIA   CLOUDY    53  50  89 NE15G24   29.99F
NORTH PHILA    CLOUDY    53  50  89 NE12G22   30.02F
BLUE BELL*     CLOUDY    50  48  93 E8        30.02S
DOYLESTOWN     CLOUDY    51  49  92 VRB5      30.01F
QUAKERTOWN*    CLOUDY    52  46  82 NE7       30.03F
PERKASIE*      CLOUDY    50  50 100 E12       30.02F
POTTSTOWN      CLOUDY    51  47  86 NE7       30.02F
LANCASTER      CLOUDY    53  46  77 E12       29.99S
COATESVILLE    CLOUDY    52  46  82 NE8G23    29.99F
READING        CLOUDY    54  45  71 E6        30.00F
ALLENTOWN      CLOUDY    54  39  57 NE9       30.03F
MOUNT POCONO   CLOUDY    47  35  63 E14G23    30.04F
HAZLETON       CLOUDY    52  32  46 E10G22    30.03F
LEHIGHTON      CLOUDY    54  36  50 E5        30.04S
WILKES BARRE   CLOUDY    56  40  55 VRB5      30.02F

$$
DEZALL-MDZ008-012-015-019-020-250900-
DELAWARE AND EASTERN MARYLAND

CITY           SKY/WX    TMP DP  RH WIND       PRES   REMARKS
WILMINGTON     CLOUDY    53  51  93 E10G18    29.99R
DOVER          CLOUDY    55  55 100 NE15      29.92F
GEORGETOWN     FOG       55  54  96 MISG      29.90F VSB 1
EASTON         CLOUDY    56  55  94 E14G20    29.93S FOG
ABERDEEN       CLOUDY    53  51  92 E15       29.95F
PATUXENT       CLOUDY    55  55 100 NE10      29.84F
OCEAN CITY     FOG       54  53  97 NE10      29.86F VSB 3/4
WALLOPS ISLAND FOG       56  56 100 NE15      29.84F VSB 3/4
CAMBRIDGE      CLOUDY    55  55 100 NE9G16    29.87F FOG
SALISBURY      FOG       54  54 100 NE13      29.86F VSB 3/4

$$
PAZ001-021-NYZ056-072-MDZ011-DCZ001-250900-
OTHER NEARBY LOCATIONS

CITY           SKY/WX    TMP DP  RH WIND       PRES   REMARKS
HARRISBURG     CLOUDY    53  41  63 E5        29.98F
STATE COLLEGE  CLOUDY    53  38  56 E8        29.99F
WILLIAMSPORT   CLOUDY    55  45  68 NE3       30.00F
BINGHAMTON     CLOUDY    53  29  39 E10       30.03F
NEW YORK CITY  LGT RAIN  49  47  93 E12G20    30.10F
BALTIMORE      CLOUDY    53  53 100 NE10      29.91F
WASHINGTON DC  CLOUDY    55  53  93 NE15      29.90F

$$



USA.gov is the U.S. government's official web portal to all federal, state and local government web resources and services.